SA3VCC-13 Weather Reports


Display with metric or nautical units.
time (UTC)temp
F
wind
direction
speed
MPH
gust
MPH
rain 1hr
in
rain 24hr
in
rain mn
in
humidity
%
barometer
mb
20231203150033 16 282 1.0 3.0 0.00 0.00 0.00 9 1017.1
20231203145012 16 288 1.0 3.0 0.00 0.00 0.00 9 1017.1
20231203143015 16 295 1.0 4.0 0.00 0.00 0.00 9 1017.2
20231203142042 17 318 2.0 9.0 0.00 0.00 0.00 9 1017.1
20231203141011 17 290 1.0 3.0 0.00 0.00 0.00 9 1017.1
20231203135027 17 298 1.0 4.0 0.00 0.00 0.00 9 1017.0
20231203134039 17 302 1.0 8.0 0.00 0.00 0.00 9 1017.1
20231203133013 17 307 1.0 6.0 0.00 0.00 0.00 9 1017.1
20231203131011 17 310 2.0 7.0 0.00 0.00 0.00 9 1017.0
20231203125015 18 321 2.0 8.0 0.00 0.00 0.00 9 1016.8
20231203123022 18 320 2.0 7.0 0.00 0.00 0.00 9 1016.8
20231203121012 18 270 0.0 3.0 0.00 0.00 0.00 9 1016.8
20231203115017 18 309 1.0 4.0 0.00 0.00 0.00 9 1016.7
20231203113012 18 299 1.0 5.0 0.00 0.00 0.00 9 1016.8
20231203112038 18 306 1.0 4.0 0.00 0.00 0.00 9 1016.8
20231203111012 18 270 1.0 3.0 0.00 0.00 0.00 9 1016.8
20231203105013 18 309 1.0 3.0 0.00 0.00 0.00 9 1016.5
20231203103016 18 302 1.0 4.0 0.00 0.00 0.00 9 1016.7
20231203102040 17 299 1.0 6.0 0.00 0.00 0.00 9 1016.8
20231203101012 17 299 1.0 6.0 0.00 0.00 0.00 9 1016.8
20231203100038 17 299 1.0 6.0 0.00 0.00 0.00 9 1016.8
20231203093015 17 299 1.0 6.0 0.00 0.00 0.00 9 1016.8
20231203091011 17 270 1.0 2.0 0.00 0.00 0.00 9 1016.7
20231203085011 17 297 1.0 4.0 0.00 0.00 0.00 9 1016.6
20231203083015 16 310 1.0 4.0 0.00 0.00 0.00 9 1016.5
20231203081015 16 305 2.0 8.0 0.00 0.00 0.00 9 1016.4
20231203075011 16 293 1.0 4.0 0.00 0.00 0.00 9 1016.3
20231203074038 16 308 2.0 6.0 0.00 0.00 0.00 9 1016.3
20231203073011 16 299 1.0 5.0 0.00 0.00 0.00 9 1016.2
20231203071012 16 295 1.0 6.0 0.00 0.00 0.00 9 1016.1
20231203065012 16 286 1.0 5.0 0.00 0.00 0.00 9 1015.9
20231203063015 15 270 1.0 3.0 0.00 0.00 0.00 9 1015.8
20231203062038 15 240 0.0 1.0 0.00 0.00 0.00 9 1015.8
20231203061019 15 289 2.0 6.0 0.00 0.00 0.00 9 1015.8
20231203060031 15 289 1.0 4.0 0.00 0.00 0.00 9 1015.8
20231203055020 15 254 1.0 2.0 0.00 0.00 0.00 9 1015.8
20231203054049 15 300 1.0 4.0 0.00 0.00 0.00 9 1015.8
20231203053012 15 293 1.0 3.0 0.00 0.00 0.00 9 1015.8
20231203051011 15 251 1.0 3.0 0.00 0.00 0.00 9 1015.7
20231203050037 15 270 1.0 3.0 0.00 0.00 0.00 9 1015.6
20231203045011 15 289 1.0 4.0 0.00 0.00 0.00 9 1015.6
20231203043014 15 317 1.0 7.0 0.00 0.00 0.00 9 1015.5
20231203041015 15 309 1.0 5.0 0.00 0.00 0.00 9 1015.5
20231203040039 15 307 1.0 4.0 0.00 0.00 0.00 9 1015.5
20231203035012 14 270 1.0 4.0 0.00 0.00 0.00 9 1015.6
20231203033016 15 290 2.0 6.0 0.00 0.00 0.00 9 1015.5
20231203032029 15 285 1.0 6.0 0.00 0.00 0.00 9 1015.5
20231203031011 14 290 1.0 4.0 0.00 0.00 0.00 9 1015.5
20231203030039 14 286 1.0 3.0 0.00 0.00 0.00 9 1015.5
20231203025014 14 270 1.0 3.0 0.00 0.00 0.00 9 1015.5
20231203023013 14 299 1.0 5.0 0.00 0.00 0.00 9 1015.5
20231203021012 14 270 1.0 4.0 0.00 0.00 0.00 9 1015.3
20231203015017 14 282 2.0 6.0 0.00 0.00 0.00 9 1015.2
20231203014047 14 252 1.0 2.0 0.00 0.00 0.00 9 1015.3
20231203013013 14 289 1.0 6.0 0.00 0.00 0.00 9 1015.3
20231203011012 14 308 3.0 7.0 0.00 0.00 0.00 9 1015.2
20231203010036 14 270 1.0 2.0 0.00 0.00 0.00 9 1015.2
20231203005013 14 270 1.0 3.0 0.00 0.00 0.00 9 1015.2
20231203003018 14 311 2.0 6.0 0.00 0.00 0.00 9 1015.0
20231203001012 14 270 1.0 3.0 0.00 0.00 0.00 9 1015.1
20231202235012 14 295 1.0 5.0 0.00 0.00 0.00 9 1015.1
20231202233012 14 301 2.0 9.0 0.00 0.00 0.00 9 1015.1
20231202231014 14 316 2.0 7.0 0.00 0.00 0.00 9 1015.2
20231202225011 14 270 1.0 3.0 0.00 0.00 0.00 9 1015.2
20231202223013 14 297 1.0 5.0 0.00 0.00 0.00 9 1015.2
20231202221019 14 310 2.0 6.0 0.00 0.00 0.00 9 1015.1
20231202215018 14 315 1.0 4.0 0.00 0.00 0.00 9 1014.9
20231202214050 15 270 1.0 3.0 0.00 0.00 0.00 9 1014.5
20231202213019 15 270 1.0 3.0 0.00 0.00 0.00 9 1014.5
20231202212045 15 270 1.0 3.0 0.00 0.00 0.00 9 1014.5
20231202211019 15 270 1.0 3.0 0.00 0.00 0.00 9 1014.5
20231202210035 15 270 1.0 3.0 0.00 0.00 0.00 9 1014.5
20231202205014 15 270 1.0 3.0 0.00 0.00 0.00 9 1014.5
20231202204039 16 310 1.0 4.0 0.00 0.00 0.00 9 1014.5
20231202203012 16 289 1.0 5.0 0.00 0.00 0.00 9 1014.2
20231202202032 16 289 1.0 5.0 0.00 0.00 0.00 9 1014.2
20231202201012 16 309 1.0 4.0 0.00 0.00 0.00 9 1014.2
20231202195019 16 315 2.0 5.0 0.00 0.00 0.00 9 1014.0
20231202194039 16 306 1.0 8.0 0.00 0.00 0.00 9 1013.9
20231202193015 16 306 1.0 8.0 0.00 0.00 0.00 9 1013.9
20231202192040 16 316 3.0 8.0 0.00 0.00 0.00 9 1013.8
20231202191014 16 298 1.0 4.0 0.00 0.00 0.00 9 1013.8
20231202190028 16 308 2.0 5.0 0.00 0.00 0.00 9 1013.8
20231202185013 16 308 2.0 6.0 0.00 0.00 0.00 9 1013.7
20231202184036 16 310 1.0 4.0 0.00 0.00 0.00 9 1013.7
20231202183016 16 270 0.0 2.0 0.00 0.00 0.00 9 1013.7
20231202181017 16 291 1.0 3.0 0.00 0.00 0.00 9 1013.7
20231202180051 16 315 2.0 5.0 0.00 0.00 0.00 9 1013.6
20231202175014 16 301 1.0 3.0 0.00 0.00 0.00 9 1013.6
20231202173012 16 300 1.0 6.0 0.00 0.00 0.00 9 1013.4
20231202172037 17 318 2.0 7.0 0.00 0.00 0.00 9 1013.3
20231202171012 17 296 1.0 4.0 0.00 0.00 0.00 9 1013.3
20231202165014 17 296 1.0 3.0 0.00 0.00 0.00 9 1013.1
20231202163012 17 304 1.0 4.0 0.00 0.00 0.00 9 1013.0
20231202162032 17 270 1.0 3.0 0.00 0.00 0.00 9 1013.0
20231202161017 16 304 1.0 3.0 0.00 0.00 0.00 9 1012.9
20231202160039 16 306 1.0 4.0 0.00 0.00 0.00 9 1012.9
20231202155014 16 303 1.0 3.0 0.00 0.00 0.00 9 1012.8
20231202153018 16 297 1.0 3.0 0.00 0.00 0.00 9 1012.7
20231202151015 16 270 1.0 3.0 0.00 0.00 0.00 9 1012.7